This demonstration page uses our WeatherBlox Daily Observations layout. Learn more.

Left ArrowRight Arrow

Hourly Observations for April 21, 2022

Temp ( °F °C ) Dew Point ( °F °C ) Humidity (%) Winds ( mph kmh ) Pressure ( in mb ) Visibility ( mi km ) Precip ( " mm )
12:41 am 00:41 Mostly Cloudy 54 12.2 54 12.2 100 100 S 3 6 29.96 1015 7 11 0.00 0.00
12:48 am 00:48 Mostly Cloudy 54 12 54 12 100 100 S 5 7 29.96 1015 7 11 0.00 0.00
12:52 am 00:52 Mostly Cloudy 54 12.2 53 11.7 97 97 S 3 6 29.96 1015 8 13 0.00 0.00
1:25 am 01:25 Mostly Cloudy with Mist and Fog 54 12.2 53 11.7 97 97 Calm 30.00 1016 6 10 0.00 0.00
1:52 am 01:52 Cloudy 55 12.8 54 12.2 96 96 Calm 30.00 1016 7 11 0.00 0.00
2:52 am 02:52 Mostly Cloudy with Mist and Fog 55 12.8 54 12.2 96 96 Calm 30.02 1017 6 10 0.00 0.00
3:15 am 03:15 Mostly Clear with Mist and Fog 53 11.7 52 11.1 96 96 Calm 30.03 1017 4 6 0.00 0.00
3:24 am 03:24 Mostly Clear with Mist and Fog 52 11.1 52 11.1 100 100 E 3 6 30.04 1017 3 4 0.00 0.00
3:34 am 03:34 Mostly Cloudy with Mist and Fog 50 10 50 10 100 100 E 5 7 30.04 1017 1 2 0.00 0.00
3:44 am 03:44 Mostly Clear with Mist and Fog 53 11.7 52 11.1 96 96 E 3 6 30.04 1017 2 3 0.00 0.00
3:52 am 03:52 Mostly Clear with Mist and Fog 50 10 50 10 100 100 NE 6 9 30.03 1017 3 5 0.00 0.00
4:01 am 04:01 Mostly Clear with Mist and Fog 49 9.4 49 9.4 100 100 SSE 6 9 30.05 1018 2 3 0.00 0.00
4:03 am 04:03 Mostly Cloudy with Mist and Fog 48 8.9 48 8.9 100 100 SSE 6 9 30.06 1018 1 2 0.00 0.00
4:15 am 04:15 Mostly Cloudy with Light Rain 53 11.7 52 11.1 96 96 SSE 7 11 30.04 1017 3 5 0.00 0.00
4:24 am 04:24 Partly Cloudy with Mist and Fog 53 11.7 52 11.1 96 96 SE 6 9 30.04 1017 3 5 0.00 0.00
4:32 am 04:32 Mostly Clear with Mist and Fog 52 11.1 52 11.1 100 100 SSE 5 7 30.06 1018 2 3 0.00 0.00
4:40 am 04:40 Mostly Cloudy with Mist and Fog 51 10.6 51 10.6 100 100 Calm 30.06 1018 1 1 0.00 0.00
4:52 am 04:52 Mostly Cloudy with Fog 51 10.6 50 10 96 96 Calm 30.06 1018 0 0 0.00 0.00
5:00 am 05:00 Mostly Cloudy with Fog 52 11.1 51 10.6 97 97 Calm 30.07 1018 1 1 0.00 0.00
5:18 am 05:18 Mostly Cloudy with Fog 49 9.4 49 9.4 100 100 ENE 3 6 30.07 1018 0 0 0.00 0.00
5:34 am 05:34 Cloudy with Mist and Fog 51 10.6 51 10.6 100 100 NE 6 9 30.07 1018 1 2 0.00 0.00
5:40 am 05:40 Cloudy with Mist and Fog 52 11.1 52 11.1 100 100 NE 5 7 30.07 1018 3 5 0.00 0.00
5:48 am 05:48 Cloudy with Mist and Fog 52 11 52 11 100 100 E 3 6 30.09 1019 3 4 0.00 0.00
5:52 am 05:52 Cloudy with Mist and Fog 52 11.1 52 11.1 100 100 SSE 7 11 30.08 1019 2 3 0.00 0.00
6:20 am 06:20 Mostly Cloudy with Fog 54 12.2 54 12.2 100 100 SE 8 13 30.10 1019 1 1 0.00 0.00
6:35 am 06:35 Mostly Cloudy with Fog 54 12.2 54 12.2 100 100 ESE 6 9 30.12 1020 0 0 0.00 0.00
6:52 am 06:52 Mostly Cloudy with Fog 55 12.8 55 12.8 100 100 SSE 8 13 30.13 1020 0 0 0.00 0.00
7:26 am 07:26 Mostly Cloudy with Fog 57 13.9 57 13.9 100 100 ESE 7 11 30.13 1020 1 1 0.00 0.00
7:41 am 07:41 Cloudy with Mist and Fog 57 13.9 57 13.9 100 100 ESE 8 13 30.13 1020 2 3 0.00 0.00
7:52 am 07:52 Cloudy with Mist and Fog 57 13.9 57 13.9 100 100 SE 8 13 30.13 1020 4 6 0.00 0.00
8:28 am 08:28 Mostly Cloudy with Mist and Fog 59 15 58 14.4 96 96 ESE 7 11 30.14 1021 6 10 0.00 0.00
8:52 am 08:52 Mostly Cloudy 59 15 58 14.4 96 96 SE 6 9 30.15 1021 8 13 0.00 0.00
9:20 am 09:20 Mostly Cloudy 62 16.7 58 14.4 86 86 SE 6 9 30.16 1021 9 14 0.00 0.00
9:52 am 09:52 Cloudy 64 17.8 59 15 84 84 ESE 9 15 30.17 1022 10 16 0.00 0.00
10:12 am 10:12 Partly Cloudy 66 18.9 60 15.6 81 81 SE 9 15 30.16 1021 10 16 0.00 0.00
10:52 am 10:52 Mostly Cloudy 69 20.6 61 16.1 76 76 SE 9 15 30.18 1022 10 16 0.00 0.00
11:52 am 11:52 Mostly Sunny 73 22.8 63 17.2 71 71 SE 10 17 30.18 1022 10 16 0.00 0.00
12:52 pm 12:52 Mostly Sunny 75 23.9 64 17.8 69 69 SSE 12 19 30.15 1021 10 16 0.00 0.00
1:52 pm 13:52 Mostly Sunny 74 23.3 63 17.2 69 69 SE 13 20 30.13 1020 10 16 0.00 0.00
2:52 pm 14:52 Mostly Sunny 73 22.8 63 17.2 71 71 SSE 12 19 30.12 1020 10 16 0.00 0.00
3:52 pm 15:52 Partly Cloudy 75 23.9 64 17.8 69 69 SSE 15 24 30.10 1019 10 16 0.00 0.00
4:12 pm 16:12 Cloudy 74 23.3 64 17.8 71 71 SSE 16 26 30.07 1018 10 16 0.00 0.00
4:33 pm 16:33 Mostly Cloudy 75 23.9 63 17.2 66 66 SSE 18 30 30.07 1018 10 16 0.00 0.00
4:52 pm 16:52 Mostly Cloudy 74 23.3 63 17.2 69 69 SE 17 28 30.10 1019 10 16 0.00 0.00
5:13 pm 17:13 Cloudy with Light Rain 72 22.2 64 17.8 76 76 SSE 12 19 30.09 1019 10 16 0.00 0.00
5:52 pm 17:52 Cloudy 71 21.7 65 18.3 81 81 SSE 8 13 30.14 1021 10 16 0.00 0.00
6:02 pm 18:02 Cloudy 71 21.7 65 18.3 81 81 SE 12 19 30.12 1020 10 16 0.00 0.00
6:52 pm 18:52 Cloudy 72 22.2 65 18.3 79 79 E 14 22 30.12 1020 10 16 0.00 0.00
7:52 pm 19:52 Cloudy 70 21.1 64 17.8 82 82 SE 14 22 30.11 1020 10 16 0.00 0.00
8:52 pm 20:52 Cloudy 70 21.1 63 17.2 79 79 SE 18 30 30.12 1020 10 16 0.00 0.00
9:52 pm 21:52 Cloudy 70 21.1 63 17.2 79 79 SE 20 31 30.13 1020 10 16 0.00 0.00
10:52 pm 22:52 Cloudy 68 20 63 17.2 84 84 SSE 14 22 30.14 1021 10 16 0.00 0.00
11:52 pm 23:52 Cloudy 68 20 63 17.2 84 84 SSE 14 22 30.14 1021 10 16 0.00 0.00

Powered by AerisWeather